| time (UTC) | temp F | wind direction | speed MPH | gust MPH | rain 1hr in | rain 24hr in | rain mn in | humidity % | barometer mb |
| 20260831233844 | 70 | 352 | 11.0 | 11.0 | 0.00 | 0.00 | 0.00 | 99 | 1027.0 |
| 20260831233338 | 70 | 352 | 11.0 | 11.0 | 0.00 | 0.00 | 0.00 | 99 | 1027.0 |
| 20260831232834 | 71 | 354 | 10.0 | 11.0 | 0.00 | 0.00 | 0.00 | 99 | 1027.1 |
| 20260831232330 | 71 | 354 | 10.0 | 11.0 | 0.00 | 0.00 | 0.00 | 99 | 1027.1 |
| 20260831231820 | 71 | 354 | 11.0 | 13.0 | 0.00 | 0.00 | 0.00 | 99 | 1027.3 |
| 20260831231317 | 71 | 354 | 11.0 | 13.0 | 0.00 | 0.00 | 0.00 | 99 | 1027.3 |
| 20260831230812 | 71 | 355 | 11.0 | 13.0 | 0.00 | 0.00 | 0.00 | 99 | 1027.0 |
| 20260831230307 | 71 | 355 | 11.0 | 13.0 | 0.00 | 0.00 | 0.00 | 99 | 1027.0 |
| 20260831225806 | 71 | 10 | 9.0 | 10.0 | 0.00 | 0.00 | 0.00 | 99 | 1026.8 |
| 20260831225301 | 71 | 10 | 9.0 | 10.0 | 0.00 | 0.00 | 0.00 | 99 | 1026.8 |
| 20260831224756 | 71 | 359 | 11.0 | 13.0 | 0.00 | 0.00 | 0.00 | 99 | 1026.7 |
| 20260831224251 | 71 | 359 | 11.0 | 13.0 | 0.00 | 0.00 | 0.00 | 99 | 1026.7 |
| 20260831223746 | 72 | 12 | 12.0 | 14.0 | 0.00 | 0.00 | 0.00 | 99 | 1026.8 |
| 20260831223243 | 72 | 12 | 12.0 | 14.0 | 0.00 | 0.00 | 0.00 | 99 | 1026.8 |
| 20260831222739 | 73 | 5 | 9.0 | 9.0 | 0.00 | 0.00 | 0.00 | 99 | 1026.7 |
| 20260831222234 | 73 | 5 | 9.0 | 9.0 | 0.00 | 0.00 | 0.00 | 99 | 1026.7 |
| 20260831221730 | 74 | 350 | 5.0 | 6.0 | 0.00 | 0.00 | 0.00 | 99 | 1026.7 |
| 20260831221225 | 74 | 350 | 5.0 | 6.0 | 0.00 | 0.00 | 0.00 | 99 | 1026.7 |
| 20260831220720 | 74 | 11 | 5.0 | 6.0 | 0.00 | 0.00 | 0.00 | 99 | 1026.7 |
| 20260831220215 | 74 | 11 | 5.0 | 6.0 | 0.00 | 0.00 | 0.00 | 99 | 1026.7 |
| 20260831215710 | 73 | 2 | 5.0 | 7.0 | 0.00 | 0.00 | 0.00 | 99 | 1026.8 |
| 20260831215206 | 73 | 2 | 5.0 | 7.0 | 0.00 | 0.00 | 0.00 | 99 | 1026.8 |
| 20260831214703 | 73 | 338 | 8.0 | 10.0 | 0.00 | 0.00 | 0.00 | 99 | 1026.8 |
| 20260831214159 | 73 | 338 | 8.0 | 10.0 | 0.00 | 0.00 | 0.00 | 99 | 1026.8 |
| 20260831213655 | 72 | 5 | 7.0 | 8.0 | 0.00 | 0.00 | 0.00 | 99 | 1027.3 |
| 20260831213150 | 72 | 5 | 7.0 | 8.0 | 0.00 | 0.00 | 0.00 | 99 | 1027.3 |
| 20260831212640 | 73 | 17 | 5.0 | 6.0 | 0.00 | 0.00 | 0.00 | 99 | 1027.3 |
| 20260831212137 | 73 | 17 | 5.0 | 6.0 | 0.00 | 0.00 | 0.00 | 99 | 1027.3 |
| 20260831211635 | 74 | 15 | 8.0 | 9.0 | 0.00 | 0.00 | 0.00 | 99 | 1027.2 |
| 20260831211130 | 74 | 15 | 8.0 | 9.0 | 0.00 | 0.00 | 0.00 | 99 | 1027.2 |
| 20260831210625 | 72 | 359 | 5.0 | 7.0 | 0.00 | 0.00 | 0.00 | 99 | 1027.6 |
| 20260831210121 | 72 | 359 | 5.0 | 7.0 | 0.00 | 0.00 | 0.00 | 99 | 1027.6 |
| 20260831205620 | 73 | 30 | 9.0 | 11.0 | 0.00 | 0.00 | 0.00 | 99 | 1027.8 |
| 20260831205116 | 73 | 30 | 9.0 | 11.0 | 0.00 | 0.00 | 0.00 | 99 | 1027.8 |
| 20260831204616 | 72 | 355 | 7.0 | 9.0 | 0.00 | 0.00 | 0.00 | 99 | 1027.7 |
| 20260831204114 | 72 | 355 | 7.0 | 9.0 | 0.00 | 0.00 | 0.00 | 99 | 1027.7 |
| 20260831203609 | 72 | 1 | 8.0 | 10.0 | 0.00 | 0.00 | 0.00 | 99 | 1027.7 |
| 20260831203108 | 72 | 1 | 8.0 | 10.0 | 0.00 | 0.00 | 0.00 | 99 | 1027.7 |
| 20260831202607 | 73 | 1 | 8.0 | 10.0 | 0.00 | 0.00 | 0.00 | 99 | 1027.8 |
| 20260831202102 | 73 | 1 | 8.0 | 10.0 | 0.00 | 0.00 | 0.00 | 99 | 1027.8 |
| 20260831201600 | 73 | 348 | 9.0 | 10.0 | 0.00 | 0.00 | 0.00 | 99 | 1027.8 |
| 20260831201056 | 73 | 348 | 9.0 | 10.0 | 0.00 | 0.00 | 0.00 | 99 | 1027.8 |
| 20260831200552 | 75 | 319 | 5.0 | 6.0 | 0.00 | 0.00 | 0.00 | 99 | 1028.0 |
| 20260831200051 | 75 | 319 | 5.0 | 6.0 | 0.00 | 0.00 | 0.00 | 99 | 1028.0 |
| 20260831195547 | 75 | 138 | 4.0 | 6.0 | 0.00 | 0.00 | 0.00 | 99 | 1028.0 |
| 20260831195042 | 75 | 138 | 4.0 | 6.0 | 0.00 | 0.00 | 0.00 | 99 | 1028.0 |
| 20260831194537 | 75 | 131 | 0.0 | 1.0 | 0.00 | 0.00 | 0.00 | 99 | 1028.2 |
| 20260831194032 | 75 | 131 | 0.0 | 1.0 | 0.00 | 0.00 | 0.00 | 99 | 1028.2 |
| 20260831193527 | 78 | 7 | 3.0 | 3.0 | 0.00 | 0.00 | 0.00 | 99 | 1028.3 |
| 20260831193022 | 78 | 7 | 3.0 | 3.0 | 0.00 | 0.00 | 0.00 | 99 | 1028.3 |
| 20260831192517 | 75 | 126 | 3.0 | 3.0 | 0.00 | 0.00 | 0.00 | 99 | 1028.5 |
| 20260831192012 | 75 | 126 | 3.0 | 3.0 | 0.00 | 0.00 | 0.00 | 99 | 1028.5 |
| 20260831191503 | 77 | 143 | 1.0 | 3.0 | 0.00 | 0.00 | 0.00 | 99 | 1028.5 |
| 20260831190959 | 77 | 143 | 1.0 | 3.0 | 0.00 | 0.00 | 0.00 | 99 | 1028.5 |
| 20260831190454 | 76 | 141 | 3.0 | 3.0 | 0.00 | 0.00 | 0.00 | 99 | 1028.6 |
| 20260831185952 | 76 | 141 | 3.0 | 3.0 | 0.00 | 0.00 | 0.00 | 99 | 1028.6 |
| 20260831185449 | 74 | 43 | 6.0 | 7.0 | 0.00 | 0.00 | 0.00 | 99 | 1028.6 |
| 20260831184948 | 74 | 43 | 6.0 | 7.0 | 0.00 | 0.00 | 0.00 | 99 | 1028.6 |
| 20260831184443 | 74 | 109 | 0.0 | 1.0 | 0.00 | 0.00 | 0.00 | 99 | 1028.6 |
| 20260831183938 | 74 | 109 | 0.0 | 1.0 | 0.00 | 0.00 | 0.00 | 99 | 1028.6 |
| 20260831183437 | 73 | 142 | 1.0 | 2.0 | 0.00 | 0.00 | 0.00 | 99 | 1029.0 |
| 20260831182937 | 73 | 142 | 1.0 | 2.0 | 0.00 | 0.00 | 0.00 | 99 | 1029.0 |
| 20260831182433 | 72 | 146 | 0.0 | 1.0 | 0.00 | 0.00 | 0.00 | 99 | 1029.0 |
| 20260831181928 | 72 | 146 | 0.0 | 1.0 | 0.00 | 0.00 | 0.00 | 99 | 1029.0 |
| 20260831181424 | 72 | 62 | 3.0 | 4.0 | 0.00 | 0.00 | 0.00 | 99 | 1029.1 |
| 20260831180923 | 72 | 62 | 3.0 | 4.0 | 0.00 | 0.00 | 0.00 | 99 | 1029.1 |
| 20260831180418 | 71 | 47 | 9.0 | 10.0 | 0.00 | 0.00 | 0.00 | 99 | 1029.0 |
| 20260831175917 | 71 | 47 | 9.0 | 10.0 | 0.00 | 0.00 | 0.00 | 99 | 1029.0 |
| 20260831175414 | 73 | 26 | 4.0 | 6.0 | 0.00 | 0.00 | 0.00 | 99 | 1029.0 |
| 20260831174909 | 73 | 26 | 4.0 | 6.0 | 0.00 | 0.00 | 0.00 | 99 | 1029.0 |
| 20260831174404 | 71 | 43 | 5.0 | 8.0 | 0.00 | 0.00 | 0.00 | 99 | 1029.0 |
| 20260831173903 | 71 | 43 | 5.0 | 8.0 | 0.00 | 0.00 | 0.00 | 99 | 1029.0 |
| 20260831173403 | 71 | 65 | 8.0 | 10.0 | 0.00 | 0.00 | 0.00 | 99 | 1029.1 |
| 20260831172858 | 71 | 65 | 8.0 | 10.0 | 0.00 | 0.00 | 0.00 | 99 | 1029.1 |
| 20260831171604 | 72 | 23 | 4.0 | 4.0 | 0.00 | 0.00 | 0.00 | 99 | 1029.1 |
| 20260831171102 | 72 | 23 | 4.0 | 4.0 | 0.00 | 0.00 | 0.00 | 99 | 1029.1 |
| 20260831170557 | 68 | 36 | 2.0 | 2.0 | 0.00 | 0.00 | 0.00 | 99 | 1029.1 |
| 20260831170055 | 68 | 36 | 2.0 | 2.0 | 0.00 | 0.00 | 0.00 | 99 | 1029.1 |
| 20260831165554 | 68 | 75 | 3.0 | 3.0 | 0.00 | 0.00 | 0.00 | 99 | 1029.1 |
| 20260831165051 | 68 | 75 | 3.0 | 3.0 | 0.00 | 0.00 | 0.00 | 99 | 1029.1 |
| 20260831164547 | 68 | 91 | 1.0 | 2.0 | 0.00 | 0.00 | 0.00 | 99 | 1029.0 |
| 20260831164042 | 68 | 91 | 1.0 | 2.0 | 0.00 | 0.00 | 0.00 | 99 | 1029.0 |
| 20260831163537 | 68 | 94 | 1.0 | 1.0 | 0.00 | 0.00 | 0.00 | 99 | 1028.8 |
| 20260831163033 | 68 | 94 | 1.0 | 1.0 | 0.00 | 0.00 | 0.00 | 99 | 1028.8 |
| 20260831162531 | 66 | 145 | 1.0 | 2.0 | 0.00 | 0.00 | 0.00 | 99 | 1028.7 |
| 20260831162030 | 66 | 145 | 1.0 | 2.0 | 0.00 | 0.00 | 0.00 | 99 | 1028.7 |
| 20260831161526 | 65 | 26 | 2.0 | 2.0 | 0.00 | 0.00 | 0.00 | 99 | 1029.0 |
| 20260831161022 | 65 | 26 | 2.0 | 2.0 | 0.00 | 0.00 | 0.00 | 99 | 1029.0 |
| 20260831160521 | 64 | 131 | 0.0 | 0.0 | 0.00 | 0.00 | 0.00 | 99 | 1028.7 |
| 20260831160017 | 64 | 131 | 0.0 | 0.0 | 0.00 | 0.00 | 0.00 | 99 | 1028.7 |
| 20260831155511 | 63 | 160 | 2.0 | 2.0 | 0.00 | 0.00 | 0.00 | 99 | 1028.5 |
| 20260831155006 | 63 | 160 | 2.0 | 2.0 | 0.00 | 0.00 | 0.00 | 99 | 1028.5 |
| 20260831154503 | 63 | 89 | 4.0 | 4.0 | 0.00 | 0.00 | 0.00 | 99 | 1028.6 |
| 20260831154001 | 63 | 89 | 4.0 | 4.0 | 0.00 | 0.00 | 0.00 | 99 | 1028.6 |
| 20260831153457 | 63 | 107 | 4.0 | 4.0 | 0.00 | 0.00 | 0.00 | 99 | 1028.6 |
| 20260831152954 | 63 | 107 | 4.0 | 4.0 | 0.00 | 0.00 | 0.00 | 99 | 1028.6 |
| 20260831152454 | 62 | 81 | 5.0 | 6.0 | 0.00 | 0.00 | 0.00 | 99 | 1028.3 |
| 20260831151949 | 62 | 81 | 5.0 | 6.0 | 0.00 | 0.00 | 0.00 | 99 | 1028.3 |
| 20260831151449 | 60 | 107 | 4.0 | 6.0 | 0.00 | 0.00 | 0.00 | 99 | 1028.2 |
| 20260831150944 | 60 | 107 | 4.0 | 6.0 | 0.00 | 0.00 | 0.00 | 99 | 1028.2 |
| 20260831150439 | 60 | 107 | 4.0 | 4.0 | 0.00 | 0.00 | 0.00 | 99 | 1028.3 |
| 20260831145939 | 60 | 107 | 4.0 | 4.0 | 0.00 | 0.00 | 0.00 | 99 | 1028.3 |
| 20260831145435 | 60 | 82 | 6.0 | 7.0 | 0.00 | 0.00 | 0.00 | 99 | 1028.2 |
| 20260831144930 | 60 | 82 | 6.0 | 7.0 | 0.00 | 0.00 | 0.00 | 99 | 1028.2 |
| 20260831144426 | 60 | 96 | 4.0 | 4.0 | 0.00 | 0.00 | 0.00 | 99 | 1028.3 |
| 20260831143921 | 60 | 96 | 4.0 | 4.0 | 0.00 | 0.00 | 0.00 | 99 | 1028.3 |
| 20260831143411 | 59 | 96 | 7.0 | 8.0 | 0.00 | 0.00 | 0.00 | 99 | 1028.1 |
| 20260831142907 | 59 | 96 | 7.0 | 8.0 | 0.00 | 0.00 | 0.00 | 99 | 1028.1 |
| 20260831142402 | 59 | 95 | 10.0 | 13.0 | 0.00 | 0.00 | 0.00 | 99 | 1028.0 |
| 20260831141902 | 59 | 95 | 10.0 | 13.0 | 0.00 | 0.00 | 0.00 | 99 | 1028.0 |
| 20260831141355 | 59 | 116 | 6.0 | 7.0 | 0.00 | 0.00 | 0.00 | 99 | 1028.0 |
| 20260831140851 | 59 | 116 | 6.0 | 7.0 | 0.00 | 0.00 | 0.00 | 99 | 1028.0 |
| 20260831140345 | 59 | 127 | 6.0 | 7.0 | 0.00 | 0.00 | 0.00 | 99 | 1027.8 |
| 20260831135844 | 59 | 127 | 6.0 | 7.0 | 0.00 | 0.00 | 0.00 | 99 | 1027.8 |
| 20260831135339 | 59 | 117 | 7.0 | 8.0 | 0.00 | 0.00 | 0.00 | 99 | 1027.7 |
| 20260831134834 | 59 | 122 | 6.0 | 8.0 | 0.00 | 0.00 | 0.00 | 99 | 1027.5 |
| 20260831134331 | 59 | 122 | 6.0 | 8.0 | 0.00 | 0.00 | 0.00 | 99 | 1027.5 |
| 20260831133830 | 59 | 70 | 9.0 | 10.0 | 0.00 | 0.00 | 0.00 | 99 | 1027.6 |
| 20260831133329 | 59 | 70 | 9.0 | 10.0 | 0.00 | 0.00 | 0.00 | 99 | 1027.6 |
| 20260831132825 | 60 | 88 | 8.0 | 10.0 | 0.00 | 0.00 | 0.00 | 99 | 1027.5 |
| 20260831132320 | 60 | 88 | 8.0 | 10.0 | 0.00 | 0.00 | 0.00 | 99 | 1027.5 |
| 20260831131814 | 61 | 63 | 12.0 | 15.0 | 0.00 | 0.00 | 0.00 | 99 | 1027.2 |
| 20260831131311 | 61 | 63 | 12.0 | 15.0 | 0.00 | 0.00 | 0.00 | 99 | 1027.2 |
| 20260831130805 | 60 | 63 | 10.0 | 11.0 | 0.00 | 0.00 | 0.00 | 99 | 1027.2 |
| 20260831130301 | 60 | 63 | 10.0 | 11.0 | 0.00 | 0.00 | 0.00 | 99 | 1027.2 |
| 20260831125800 | 61 | 70 | 8.0 | 10.0 | 0.00 | 0.00 | 0.00 | 99 | 1027.2 |
| 20260831125256 | 61 | 70 | 8.0 | 10.0 | 0.00 | 0.00 | 0.00 | 99 | 1027.2 |
| 20260831124755 | 62 | 68 | 7.0 | 9.0 | 0.00 | 0.00 | 0.00 | 99 | 1027.2 |
| 20260831124252 | 62 | 68 | 7.0 | 9.0 | 0.00 | 0.00 | 0.00 | 99 | 1027.2 |
| 20260831123752 | 61 | 60 | 6.0 | 7.0 | 0.00 | 0.00 | 0.00 | 99 | 1027.2 |
| 20260831123251 | 61 | 60 | 6.0 | 7.0 | 0.00 | 0.00 | 0.00 | 99 | 1027.2 |
| 20260831122746 | 62 | 63 | 3.0 | 4.0 | 0.00 | 0.00 | 0.00 | 99 | 1027.0 |
| 20260831122242 | 62 | 63 | 3.0 | 4.0 | 0.00 | 0.00 | 0.00 | 99 | 1027.0 |
| 20260831121740 | 62 | 53 | 6.0 | 7.0 | 0.00 | 0.00 | 0.00 | 99 | 1027.1 |
| 20260831121237 | 62 | 53 | 6.0 | 7.0 | 0.00 | 0.00 | 0.00 | 99 | 1027.1 |
| 20260831120732 | 62 | 51 | 3.0 | 6.0 | 0.00 | 0.00 | 0.00 | 99 | 1027.0 |
| 20260831120227 | 62 | 51 | 3.0 | 6.0 | 0.00 | 0.00 | 0.00 | 99 | 1027.0 |
| 20260831115722 | 62 | 94 | 4.0 | 4.0 | 0.00 | 0.00 | 0.00 | 99 | 1026.8 |
| 20260831115219 | 62 | 94 | 4.0 | 4.0 | 0.00 | 0.00 | 0.00 | 99 | 1026.8 |
| 20260831114718 | 63 | 78 | 3.0 | 3.0 | 0.00 | 0.00 | 0.00 | 99 | 1027.1 |
| 20260831114217 | 63 | 78 | 3.0 | 3.0 | 0.00 | 0.00 | 0.00 | 99 | 1027.1 |
| 20260831113713 | 63 | 58 | 4.0 | 4.0 | 0.00 | 0.00 | 0.00 | 99 | 1026.8 |
| 20260831113212 | 63 | 58 | 4.0 | 4.0 | 0.00 | 0.00 | 0.00 | 99 | 1026.8 |
| 20260831112706 | 63 | 112 | 4.0 | 6.0 | 0.00 | 0.00 | 0.00 | 99 | 1026.8 |
| 20260831112202 | 63 | 112 | 4.0 | 6.0 | 0.00 | 0.00 | 0.00 | 99 | 1026.8 |
| 20260831111657 | 64 | 76 | 4.0 | 6.0 | 0.00 | 0.00 | 0.00 | 99 | 1026.8 |
| 20260831111154 | 64 | 76 | 4.0 | 6.0 | 0.00 | 0.00 | 0.00 | 99 | 1026.8 |
| 20260831110649 | 63 | 64 | 9.0 | 11.0 | 0.00 | 0.00 | 0.00 | 99 | 1026.8 |
| 20260831110144 | 63 | 64 | 9.0 | 11.0 | 0.00 | 0.00 | 0.00 | 99 | 1026.8 |
| 20260831105643 | 63 | 85 | 9.0 | 13.0 | 0.00 | 0.00 | 0.00 | 99 | 1026.3 |
| 20260831105138 | 63 | 85 | 9.0 | 13.0 | 0.00 | 0.00 | 0.00 | 99 | 1026.3 |
| 20260831104633 | 62 | 77 | 11.0 | 11.0 | 0.00 | 0.00 | 0.00 | 99 | 1026.3 |
| 20260831104130 | 62 | 77 | 11.0 | 11.0 | 0.00 | 0.00 | 0.00 | 99 | 1026.3 |
| 20260831103625 | 62 | 79 | 11.0 | 14.0 | 0.00 | 0.00 | 0.00 | 99 | 1026.1 |
| 20260831103120 | 62 | 79 | 11.0 | 14.0 | 0.00 | 0.00 | 0.00 | 99 | 1026.1 |
| 20260831102615 | 61 | 87 | 9.0 | 10.0 | 0.00 | 0.00 | 0.00 | 99 | 1026.2 |
| 20260831102110 | 61 | 87 | 9.0 | 10.0 | 0.00 | 0.00 | 0.00 | 99 | 1026.2 |
| 20260831101609 | 61 | 101 | 6.0 | 8.0 | 0.00 | 0.00 | 0.00 | 99 | 1026.1 |
| 20260831101106 | 61 | 101 | 6.0 | 8.0 | 0.00 | 0.00 | 0.00 | 99 | 1026.1 |
| 20260831100602 | 62 | 97 | 9.0 | 10.0 | 0.00 | 0.00 | 0.00 | 99 | 1026.0 |
| 20260831100057 | 62 | 97 | 9.0 | 10.0 | 0.00 | 0.00 | 0.00 | 99 | 1026.0 |
| 20260831095555 | 62 | 76 | 15.0 | 16.0 | 0.00 | 0.00 | 0.00 | 99 | 1026.0 |
| 20260831095050 | 62 | 76 | 15.0 | 16.0 | 0.00 | 0.00 | 0.00 | 99 | 1026.0 |
| 20260831094546 | 62 | 78 | 10.0 | 21.0 | 0.00 | 0.00 | 0.00 | 99 | 1025.8 |
| 20260831094042 | 62 | 78 | 10.0 | 21.0 | 0.00 | 0.00 | 0.00 | 99 | 1025.8 |
| 20260831093537 | 62 | 66 | 7.0 | 8.0 | 0.00 | 0.00 | 0.00 | 99 | 1025.7 |
| 20260831093033 | 62 | 66 | 7.0 | 8.0 | 0.00 | 0.00 | 0.00 | 99 | 1025.7 |
| 20260831092528 | 62 | 93 | 11.0 | 15.0 | 0.00 | 0.00 | 0.00 | 99 | 1025.6 |
| 20260831092024 | 62 | 93 | 11.0 | 15.0 | 0.00 | 0.00 | 0.00 | 99 | 1025.6 |
| 20260831091519 | 61 | 82 | 9.0 | 10.0 | 0.00 | 0.00 | 0.00 | 99 | 1025.5 |
| 20260831091015 | 61 | 82 | 9.0 | 10.0 | 0.00 | 0.00 | 0.00 | 99 | 1025.5 |
| 20260831090510 | 61 | 120 | 8.0 | 9.0 | 0.00 | 0.00 | 0.00 | 99 | 1025.6 |
| 20260831090006 | 61 | 120 | 8.0 | 9.0 | 0.00 | 0.00 | 0.00 | 99 | 1025.6 |
| 20260831085501 | 61 | 140 | 9.0 | 11.0 | 0.00 | 0.00 | 0.00 | 99 | 1025.6 |
| 20260831085001 | 61 | 140 | 9.0 | 11.0 | 0.00 | 0.00 | 0.00 | 99 | 1025.6 |
| 20260831084457 | 62 | 139 | 3.0 | 4.0 | 0.00 | 0.00 | 0.00 | 99 | 1025.8 |
| 20260831083953 | 62 | 139 | 3.0 | 4.0 | 0.00 | 0.00 | 0.00 | 99 | 1025.8 |
| 20260831083447 | 62 | 92 | 6.0 | 8.0 | 0.00 | 0.00 | 0.00 | 99 | 1025.8 |
| 20260831082942 | 62 | 92 | 6.0 | 8.0 | 0.00 | 0.00 | 0.00 | 99 | 1025.8 |
| 20260831082442 | 63 | 127 | 11.0 | 14.0 | 0.00 | 0.00 | 0.00 | 99 | 1025.6 |
| 20260831081936 | 63 | 127 | 11.0 | 14.0 | 0.00 | 0.00 | 0.00 | 99 | 1025.6 |
| 20260831081432 | 63 | 85 | 6.0 | 8.0 | 0.00 | 0.00 | 0.00 | 99 | 1026.0 |
| 20260831080928 | 63 | 85 | 6.0 | 8.0 | 0.00 | 0.00 | 0.00 | 99 | 1026.0 |
| 20260831080423 | 64 | 53 | 12.0 | 14.0 | 0.00 | 0.00 | 0.00 | 99 | 1026.0 |
| 20260831075919 | 64 | 53 | 12.0 | 14.0 | 0.00 | 0.00 | 0.00 | 99 | 1026.0 |
| 20260831075414 | 64 | 48 | 6.0 | 9.0 | 0.00 | 0.00 | 0.00 | 99 | 1025.7 |
| 20260831074909 | 64 | 48 | 6.0 | 9.0 | 0.00 | 0.00 | 0.00 | 99 | 1025.7 |
| 20260831074408 | 63 | 19 | 10.0 | 15.0 | 0.00 | 0.00 | 0.00 | 99 | 1025.6 |
| 20260831073903 | 63 | 19 | 10.0 | 15.0 | 0.00 | 0.00 | 0.00 | 99 | 1025.6 |
| 20260831073402 | 63 | 88 | 11.0 | 17.0 | 0.00 | 0.00 | 0.00 | 99 | 1025.7 |
| 20260831072857 | 63 | 88 | 11.0 | 17.0 | 0.00 | 0.00 | 0.00 | 99 | 1025.7 |
| 20260831072353 | 62 | 104 | 6.0 | 10.0 | 0.00 | 0.00 | 0.00 | 99 | 1026.0 |
| 20260831071849 | 62 | 104 | 6.0 | 10.0 | 0.00 | 0.00 | 0.00 | 99 | 1026.0 |
| 20260831071348 | 61 | 80 | 2.0 | 4.0 | 0.00 | 0.00 | 0.00 | 99 | 1026.0 |
| 20260831070843 | 61 | 80 | 2.0 | 4.0 | 0.00 | 0.00 | 0.00 | 99 | 1026.0 |
| 20260831070342 | 62 | 72 | 1.0 | 2.0 | 0.00 | 0.00 | 0.00 | 99 | 1026.6 |
| 20260831065841 | 62 | 72 | 1.0 | 2.0 | 0.00 | 0.00 | 0.00 | 99 | 1026.6 |
| 20260831065339 | 61 | 147 | 0.0 | 0.0 | 0.00 | 0.00 | 0.00 | 99 | 1026.5 |
| 20260831064834 | 61 | 147 | 0.0 | 0.0 | 0.00 | 0.00 | 0.00 | 99 | 1026.5 |
| 20260831064330 | 62 | 157 | 1.0 | 1.0 | 0.00 | 0.00 | 0.00 | 99 | 1026.6 |
| 20260831063826 | 62 | 157 | 1.0 | 1.0 | 0.00 | 0.00 | 0.00 | 99 | 1026.6 |
| 20260831063326 | 62 | 221 | 2.0 | 3.0 | 0.00 | 0.00 | 0.00 | 99 | 1026.7 |
| 20260831062826 | 62 | 221 | 2.0 | 3.0 | 0.00 | 0.00 | 0.00 | 99 | 1026.7 |
| 20260831062321 | 62 | 150 | 2.0 | 3.0 | 0.00 | 0.00 | 0.00 | 99 | 1026.8 |
| 20260831061821 | 62 | 150 | 2.0 | 3.0 | 0.00 | 0.00 | 0.00 | 99 | 1026.8 |
| 20260831061320 | 62 | 160 | 5.0 | 6.0 | 0.00 | 0.00 | 0.00 | 99 | 1026.8 |
| 20260831060816 | 62 | 160 | 5.0 | 6.0 | 0.00 | 0.00 | 0.00 | 99 | 1026.8 |
| 20260831060316 | 61 | 115 | 0.0 | 1.0 | 0.00 | 0.05 | 0.05 | 99 | 1027.1 |
| 20260831055815 | 61 | 115 | 0.0 | 1.0 | 0.00 | 0.05 | 0.05 | 99 | 1027.1 |
| 20260831055311 | 62 | 121 | 1.0 | 2.0 | 0.00 | 0.05 | 0.05 | 99 | 1027.1 |
| 20260831054806 | 62 | 121 | 1.0 | 2.0 | 0.00 | 0.05 | 0.05 | 99 | 1027.1 |
| 20260831054301 | 62 | 241 | 2.0 | 3.0 | 0.00 | 0.05 | 0.05 | 99 | 1027.2 |
| 20260831053800 | 62 | 241 | 2.0 | 3.0 | 0.00 | 0.05 | 0.05 | 99 | 1027.2 |
| 20260831053258 | 64 | 70 | 3.0 | 3.0 | 0.00 | 0.05 | 0.05 | 99 | 1026.8 |
| 20260831052753 | 64 | 70 | 3.0 | 3.0 | 0.00 | 0.05 | 0.05 | 99 | 1026.8 |
| 20260831052252 | 64 | 223 | 2.0 | 2.0 | 0.00 | 0.05 | 0.05 | 99 | 1026.6 |
| 20260831051745 | 64 | 223 | 2.0 | 2.0 | 0.00 | 0.05 | 0.05 | 99 | 1026.6 |
| 20260831051244 | 64 | 60 | 4.0 | 7.0 | 0.00 | 0.05 | 0.05 | 99 | 1027.0 |
| 20260831050739 | 62 | 132 | 2.0 | 2.0 | 0.00 | 0.05 | 0.05 | 99 | 1026.8 |
| 20260831050238 | 62 | 132 | 2.0 | 2.0 | 0.00 | 0.05 | 0.05 | 99 | 1026.8 |
| 20260831045732 | 64 | 328 | 8.0 | 9.0 | 0.00 | 0.05 | 0.05 | 99 | 1026.7 |
| 20260831045227 | 64 | 328 | 8.0 | 9.0 | 0.00 | 0.05 | 0.05 | 99 | 1026.7 |
| 20260831044721 | 63 | 53 | 2.0 | 3.0 | 0.00 | 0.05 | 0.05 | 99 | 1027.0 |
| 20260831044211 | 63 | 53 | 2.0 | 3.0 | 0.00 | 0.05 | 0.05 | 99 | 1027.0 |
| 20260831043707 | 64 | 124 | 6.0 | 7.0 | 0.00 | 0.05 | 0.05 | 99 | 1026.8 |
| 20260831043202 | 64 | 124 | 6.0 | 7.0 | 0.00 | 0.05 | 0.05 | 99 | 1026.8 |
| 20260831042701 | 65 | 66 | 4.0 | 4.0 | 0.00 | 0.05 | 0.05 | 99 | 1027.5 |
| 20260831042156 | 65 | 66 | 4.0 | 4.0 | 0.00 | 0.05 | 0.05 | 99 | 1027.5 |
| 20260831041650 | 63 | 123 | 6.0 | 7.0 | 0.00 | 0.05 | 0.05 | 99 | 1027.2 |
| 20260831041145 | 63 | 123 | 6.0 | 7.0 | 0.00 | 0.05 | 0.05 | 99 | 1027.2 |
| 20260831040640 | 62 | 154 | 1.0 | 2.0 | 0.00 | 0.05 | 0.05 | 99 | 1027.3 |
| 20260831040138 | 62 | 154 | 1.0 | 2.0 | 0.00 | 0.05 | 0.05 | 99 | 1027.3 |
| 20260831035637 | 64 | 174 | 1.0 | 1.0 | 0.00 | 0.05 | 0.05 | 99 | 1026.8 |
| 20260831035137 | 64 | 174 | 1.0 | 1.0 | 0.00 | 0.05 | 0.05 | 99 | 1026.8 |
| 20260831034636 | 64 | 120 | 2.0 | 2.0 | 0.00 | 0.05 | 0.05 | 99 | 1027.1 |
| 20260831034132 | 64 | 120 | 2.0 | 2.0 | 0.00 | 0.05 | 0.05 | 99 | 1027.1 |
| 20260831033628 | 64 | 68 | 5.0 | 7.0 | 0.00 | 0.05 | 0.05 | 99 | 1027.3 |
| 20260831033123 | 64 | 68 | 5.0 | 7.0 | 0.00 | 0.05 | 0.05 | 99 | 1027.3 |
| 20260831032622 | 63 | 58 | 3.0 | 3.0 | 0.00 | 0.05 | 0.05 | 99 | 1027.2 |
| 20260831032118 | 63 | 58 | 3.0 | 3.0 | 0.00 | 0.05 | 0.05 | 99 | 1027.2 |
| 20260831031618 | 64 | 81 | 4.0 | 4.0 | 0.00 | 0.05 | 0.05 | 99 | 1027.1 |
| 20260831031117 | 64 | 81 | 4.0 | 4.0 | 0.00 | 0.05 | 0.05 | 99 | 1027.1 |
| 20260831030616 | 64 | 53 | 5.0 | 6.0 | 0.00 | 0.05 | 0.05 | 99 | 1026.8 |
| 20260831030116 | 64 | 53 | 5.0 | 6.0 | 0.00 | 0.05 | 0.05 | 99 | 1026.8 |
| 20260831025614 | 64 | 67 | 4.0 | 6.0 | 0.00 | 0.05 | 0.05 | 99 | 1026.8 |
| 20260831025109 | 64 | 67 | 4.0 | 6.0 | 0.00 | 0.05 | 0.05 | 99 | 1026.8 |
| 20260831024606 | 64 | 121 | 3.0 | 3.0 | 0.00 | 0.05 | 0.05 | 99 | 1026.6 |
| 20260831024104 | 64 | 121 | 3.0 | 3.0 | 0.00 | 0.05 | 0.05 | 99 | 1026.6 |
| 20260831023603 | 65 | 25 | 2.0 | 4.0 | 0.00 | 0.05 | 0.05 | 99 | 1026.6 |
| 20260831023102 | 65 | 25 | 2.0 | 4.0 | 0.00 | 0.05 | 0.05 | 99 | 1026.6 |
| 20260831022556 | 65 | 325 | 5.0 | 8.0 | 0.00 | 0.05 | 0.05 | 99 | 1026.2 |
| 20260831022052 | 65 | 325 | 5.0 | 8.0 | 0.00 | 0.05 | 0.05 | 99 | 1026.2 |
| 20260831021550 | 65 | 45 | 9.0 | 11.0 | 0.00 | 0.05 | 0.05 | 99 | 1026.0 |
| 20260831021047 | 65 | 45 | 9.0 | 11.0 | 0.00 | 0.05 | 0.05 | 99 | 1026.0 |
| 20260831020542 | 65 | 63 | 6.0 | 7.0 | 0.00 | 0.05 | 0.05 | 99 | 1026.0 |
| 20260831020037 | 65 | 63 | 6.0 | 7.0 | 0.00 | 0.05 | 0.05 | 99 | 1026.0 |
| 20260831015532 | 65 | 53 | 9.0 | 15.0 | 0.00 | 0.05 | 0.05 | 99 | 1025.8 |
| 20260831015027 | 65 | 53 | 9.0 | 15.0 | 0.00 | 0.05 | 0.05 | 99 | 1025.8 |
| 20260831014522 | 65 | 71 | 9.0 | 14.0 | 0.00 | 0.05 | 0.05 | 99 | 1025.8 |
| 20260831014018 | 65 | 71 | 9.0 | 14.0 | 0.00 | 0.05 | 0.05 | 99 | 1025.8 |
| 20260831013514 | 65 | 40 | 11.0 | 14.0 | 0.00 | 0.05 | 0.05 | 99 | 1025.8 |
| 20260831013008 | 65 | 40 | 11.0 | 14.0 | 0.00 | 0.05 | 0.05 | 99 | 1025.8 |
| 20260831012503 | 65 | 70 | 5.0 | 6.0 | 0.00 | 0.05 | 0.05 | 99 | 1026.0 |
| 20260831012003 | 65 | 70 | 5.0 | 6.0 | 0.00 | 0.05 | 0.05 | 99 | 1026.0 |
| 20260831011457 | 66 | 94 | 2.0 | 3.0 | 0.00 | 0.05 | 0.05 | 99 | 1026.0 |
| 20260831010953 | 66 | 94 | 2.0 | 3.0 | 0.00 | 0.05 | 0.05 | 99 | 1026.0 |
| 20260831010452 | 66 | 86 | 4.0 | 6.0 | 0.00 | 0.05 | 0.05 | 99 | 1025.8 |
| 20260831005948 | 66 | 86 | 4.0 | 6.0 | 0.00 | 0.05 | 0.05 | 99 | 1025.8 |
| 20260831005444 | 66 | 43 | 4.0 | 6.0 | 0.00 | 0.05 | 0.05 | 99 | 1026.0 |
| 20260831004943 | 66 | 43 | 4.0 | 6.0 | 0.00 | 0.05 | 0.05 | 99 | 1026.0 |
| 20260831004440 | 67 | 70 | 7.0 | 11.0 | 0.00 | 0.05 | 0.05 | 99 | 1025.7 |
| 20260831003936 | 67 | 70 | 7.0 | 11.0 | 0.00 | 0.05 | 0.05 | 99 | 1025.7 |
| 20260831003431 | 68 | 52 | 7.0 | 9.0 | 0.00 | 0.05 | 0.05 | 99 | 1026.1 |
| 20260831002931 | 68 | 52 | 7.0 | 9.0 | 0.00 | 0.05 | 0.05 | 99 | 1026.1 |
| 20260831002430 | 68 | 85 | 13.0 | 14.0 | 0.00 | 0.05 | 0.05 | 99 | 1026.2 |
| 20260831001925 | 68 | 85 | 13.0 | 14.0 | 0.00 | 0.05 | 0.05 | 99 | 1026.2 |
| 20260831001420 | 68 | 62 | 8.0 | 13.0 | 0.00 | 0.05 | 0.05 | 99 | 1026.0 |
| 20260831000918 | 68 | 62 | 8.0 | 13.0 | 0.00 | 0.05 | 0.05 | 99 | 1026.0 |
| 20260831000413 | 68 | 54 | 15.0 | 18.0 | 0.00 | 0.05 | 0.05 | 99 | 1025.8 |
| 20260830235911 | 68 | 54 | 15.0 | 18.0 | 0.00 | 0.05 | 0.05 | 99 | 1025.8 |
| 20260830235406 | 68 | 63 | 11.0 | 16.0 | 0.00 | 0.05 | 0.05 | 99 | 1026.1 |
| 20260830234902 | 68 | 63 | 11.0 | 16.0 | 0.00 | 0.05 | 0.05 | 99 | 1026.1 |
| 20260830234357 | 69 | 86 | 11.0 | 15.0 | 0.00 | 0.05 | 0.05 | 99 | 1026.1 |